Rbgn^[z[y[W
メイン
   新天体発見情報
     Comet C/2020 S3 (Erasmus)
投稿するにはまず登録を

スレッド表示 | 新しいものから 前のトピック | 次のトピック | 下へ
投稿者 スレッド
佐藤裕久
投稿日時: 2020-9-23 15:09
モデレータ
登録日: 2005-6-12
居住地: 日本
投稿: 2505
オンライン
Comet C/2020 S3 (Erasmus)

Nicolas Erasmus (南アフリカ天文台: SAAO)の通報によると、9月17.6日UT、5"のシーイング
で、ハワイ Mauna Loaにある小惑星地球衝突最終警報システム Asteroid Terrestrial-impact 
Last Alert System (ATLAS)調査プログラムのコースに0.5-m f/2 Schmidt反射望遠鏡で得た
4枚の30秒CCD画像から、拡散状で、左右対称で8"(FWHM)のコマのある彗星を発見した。
小惑星センターのPCCP webpageに公表後、吉本勝己氏 (山口県熊毛郡平生町, 9月17.79日UT, 
60秒露出8枚のスタック, 0.50-m f/6.8 反射望遠鏡, Siding Spring, NSW, 遠隔操作: 17.4等で
拡散状の18"のコマが見える。9月18.47日, 60秒露出7枚のスタック, 0.50-m f/6.8 反射望遠鏡, 
Mayhill近郊, ニューメキシコ州, 遠隔操作: 15"のコマが見え、全光度17.2等でp.a.300°に10" 
の幅広い尾がある)や佐藤英貴氏(東京都文京区, 9月18.48日,60秒露出14枚のスタック,  0.25-m 
f/3.4 アストログラフ, Mayhill近郊, ニューメキシコ州, 遠隔操作:強く集光した15" のコマが
見え、p.a. 280°に向かって20"の尾の気配がある。10".0の円形範囲で測定した光度は17.6等で
あった)ら、他のCCD位置観測者によって彗星状と観測された。

彗星機能の報告は次の通り:

OC   Date        Reporter           Coma    Tail    PA          Exposures
Q62  2020-09-17  K. Yoshimoto       18"                           8x60s
H06  2020-09-18  K. Yoshimoto       15"      10"    300           7x60s
H06  2020-09-18  M. Mattiazzo       15"
Q62  2020-09-18  H. Sato            15"      20"    280          14x60s
L07  2020-09-19  E. Guido           15"                          151x30s
A71  2020-09-19  M. Jaeger          80"
L07  2020-09-20  E. Guido           20"                          157x30s
H06  2020-09-20  N. Paul            15"      13".5  171           10x60s

発見位置は次のとおり、

     2020 UT             R.A. (2000) Decl.       Mag.
     Sept.17.61161    7 42 11.09   + 9 05 20.9   18.4
          17.62149    7 42 12.51   + 9 05 13.0   17.6
          17.63209    7 42 14.05   + 9 05 06.2   18.0
          17.63578    7 42 14.61   + 9 05 03.3   18.2

MPCの放物線軌道要素、位置推算表は次のとおり、

Orbital elements:
    C/2020 S3 (Erasmus)                                                         
T 2020 Dec. 13.23896 TT                                 Rudenko                 
q   0.4108352            (2000.0)            P               Q                  
                   Peri.  349.09747     -0.84054196     +0.49026040             
                   Node   222.89156     -0.46807541     -0.87144099             
e   1.0            Incl.   19.79630     -0.27275377     -0.01534109             
From 50 observations 2020 Sept. 17-20.                                          
                                                                                
Ephemeris:
Date    TT    R. A. (2000) Decl.     Delta      r    Elong.  Phase   m1
2020 08 21    06 43 10.5 +13 00 33   2.7949  2.2515    48.2    19.6  18.6
...
2020 09 05    07 13 13.0 +11 14 54   2.4281  2.0272    55.1    24.1  17.9
...
2020 09 13    07 31 06.3 +09 57 55   2.2305  1.9037    58.2    26.7  17.5
...
2020 09 19    07 45 38.3 +08 48 14   2.0831  1.8091    60.3    28.8  17.2
2020 09 20    07 48 10.1 +08 35 29   2.0586  1.7932    60.6    29.2  17.1
2020 09 21    07 50 44.0 +08 22 24   2.0342  1.7772    60.9    29.6  17.0
...
2020 09 27    08 06 53.6 +06 56 00   1.8894  1.6803    62.5    31.9  16.7
...
2020 10 05    08 30 55.7 +04 36 46   1.7018  1.5480    63.9    35.4  16.2
...
2020 10 20    09 27 02.4 -01 20 24   1.3815  1.2898    63.3    43.6  15.1

(MPEC 2020-S119、CBET 4855)

スレッド表示 | 新しいものから 前のトピック | 次のトピック | トップ

投稿するにはまず登録を
 
© 1999 Tsutomu Seki.